Date,TemperatureHighF,TemperatureAvgF,TemperatureLowF,DewpointHighF,DewpointAvgF,DewpointLowF,HumidityHigh,HumidityAvg,HumidityLow,PressureMaxIn,PressureMinIn,WindSpeedMaxMPH,WindSpeedAvgMPH,GustSpeedMaxMPH,PrecipitationSumIn
2013-3-1,50,36,24,25,18,10,60,48,37,30.29,30.17,11,3,32,0.00
2013-3-2,55,44,32,29,24,17,66,46,27,30.19,29.75,20,6,43,0.00
2013-3-3,51,42,26,28,23,3,91,49,34,29.75,29.32,27,10,64,0.00
2013-3-4,29,22,16,11,8,4,72,55,38,30.35,29.70,15,6,24,0.00
2013-3-5,38,24,11,11,8,5,79,54,29,30.35,30.06,10,4,18,0.00
2013-3-6,49,35,20,28,15,8,64,46,29,30.07,29.63,22,4,43,0.00
2013-3-7,48,40,34,19,10,3,40,28,15,29.87,29.64,31,10,63,0.00
2013-3-8,44,34,26,29,21,12,80,60,40,29.87,29.74,10,3,17,0.00
2013-3-9,43,33,23,25,17,9,88,57,26,30.19,29.82,23,7,30,0.00
2013-3-10,49,36,21,17,14,11,70,44,26,30.20,29.91,19,4,34,0.00
2013-3-11,46,36,22,23,18,4,84,51,17,30.20,29.86,24,8,35,0.00
2013-3-12,50,32,16,24,19,12,88,62,33,30.25,30.01,23,6,34,0.00
2013-3-13,58,51,35,26,24,20,60,35,24,30.03,29.89,31,11,47,0.00
2013-3-14,66,56,48,29,25,19,41,30,19,29.96,29.74,18,6,32,0.00
2013-3-15,64,55,42,27,19,10,56,26,13,29.75,29.61,22,9,49,0.00
2013-3-16,50,41,29,31,24,15,78,53,30,29.78,29.49,21,4,33,0.00
2013-3-17,46,36,28,29,17,4,92,50,28,29.78,29.28,25,10,53,0.04
2013-3-18,37,29,18,18,8,1,70,41,25,29.93,29.78,19,8,38,0.01
2013-3-19,38,29,20,20,13,2,87,54,26,30.24,29.93,15,5,25,0.00
2013-3-20,52,38,24,26,16,4,57,40,29,30.21,29.46,23,7,50,0.00
2013-3-21,47,35,26,30,23,8,94,66,32,29.81,29.40,20,6,29,0.03
2013-3-22,31,24,19,20,12,4,86,62,34,30.12,29.80,18,7,27,0.02
2013-3-23,26,19,11,16,12,6,86,75,52,30.34,30.13,9,4,17,0.00
2013-3-24,30,20,11,13,6,1,77,56,34,30.36,30.27,16,5,29,0.00
2013-3-25,44,26,12,5,4,0,64,40,19,30.32,30.05,16,4,23,0.00
2013-3-26,47,36,25,15,8,0,40,31,25,30.05,29.85,8,3,19,0.00
2013-3-27,56,42,28,24,18,12,54,38,24,29.93,29.84,16,6,25,0.00
2013-3-28,60,50,36,24,20,18,49,32,20,29.92,29.80,12,6,22,0.00
2013-3-29,54,47,39,38,25,16,90,46,26,30.00,29.83,14,4,28,0.08
2013-3-30,56,45,37,37,29,-100,90,61,25,30.05,29.96,15,4,19,0.01
2013-3-31,59,46,35,26,22,17,54,40,25,29.95,29.84,18,7,32,0.01